Location: Newark
(44.9333°N, 0.5667°E)
Time: 12:02:55
(UTC+00:00)

N. Korean satellite - Pass Details

Date: 14 December 2019
Orbit: 454 x 508 km, 97.2° (Epoch: 17 January)

Event Time Altitude Azimuth Distance (km) Brightness Sun altitude
Rises 17:02:17 0° 171° (S) 2,597 10.5 -7.9°
Reaches altitude 10° 17:04:22 10° 173° (S) 1,714 9.6 -8.2°
Maximum altitude 17:08:04 74° 259° (WSW) 528 6.9 -8.8°
Drops below altitude 10° 17:11:45 10° 344° (NNW) 1,709 9.3 -9.4°
Sets 17:13:50 0° 347° (NNW) 2,589 10.2 -9.8°
